User: anonymous
Location: Melbourne
(37.8170°S, 144.9670°E)
Time: 17:30:00
(UTC+10:00)
Language:

CZ-3 R/B - Orbit

View from above orbital plane
View from above orbital plane
View from above satellite
View from above satellite

Ground track
Ground track

The orbit data is extracted from the following two-line orbital elements,

1 29517U 06048B   14259.67110522  .00066507  00000-0  17063-2 0  4557
2 29517 028.4633 132.9893 5286012 104.4971 337.4369 05.25898646104594
Epoch (UTC): 16 September 2014 16:06:23
Eccentricity: 0.5286012
inclination: 28.4633°
perigee height: 206 km
apogee height: 14973 km
right ascension of ascending node: 132.9893°
argument of perigee: 104.4971°
revolutions per day: 5.25898646
mean anomaly at epoch: 337.4369°
orbit number at epoch: 10459

The dashed part of the orbit path shows where the satellite is in the earth's shadow,  

DLR